Meeker, CO

12:41 AM MST on January 20, 2018 (GMT -0700)
Meeker

Weather History for KEEO - November, 2013

Change the Weather History Date:

Tuesday, November 5, 2013

  Actual Average Record
Temperature  
Mean Temperature 17 °F 37 °F  
Max Temperature 30 °F 51 °F 68 °F (1999)
Min Temperature 4 °F 23 °F 4 °F (2013)
Degree Days  
Heating Degree Days 48 28  
Month to date heating degree days 175 138  
Since 1 July heating degree days 1087 1082  
Cooling Degree Days 0 0  
Month to date cooling degree days 0 0  
Year to date cooling degree days 324 172  
Moisture  
Dew Point 15 °F    
Average Humidity 77    
Maximum Humidity 100    
Minimum Humidity 53    
Precipitation  
Precipitation 0.02 in 0.05 in 0.30 in (2011)
Month to date precipitation 0.35 0.29  
Year to date precipitation 16.39 13.77  
Sea Level Pressure  
Sea Level Pressure 30.25 in    
Wind  
Wind Speed 3 mph (East)    
Max Wind Speed 13 mph    
Max Gust Speed 16 mph    
Visibility 8 miles    
Events Snow    
T = Trace of Precipitation, MM = Missing Value Source: NWS Daily Summary

Daily Weather History Graph

Daily Weather History Graph

Search for Another Location

Airport or City:

Trip Planner

Search our weather history database for the weather conditions in past years. The results will help you decide how hot, cold, wet, or windy it might be!

Date:

Astronomy

Nov. 05, 2013 Rise Set
Actual Time 6:45 AM MST 5:04 PM MST
Civil Twilight 6:17 AM MST 5:32 PM MST
Nautical Twilight 5:45 AM MST 6:04 PM MST
Astronomical Twilight 5:13 AM MST 6:36 PM MST
Moon 9:03 AM MST (11/5) 7:08 PM MST (11/5)
Length of Visible Light 11h 15m
Length of Day
10h 18m
Waxing Crescent, 7% of the Moon is Illuminated
Nov 5
Waxing Crescent
Nov 9
First Quarter
Nov 17
Full
Nov 25
Last Quarter
Dec 2
New

Hourly Weather History & Observations

Time (MST) Temp. Windchill Dew Point Humidity Pressure Visibility Wind Dir Wind Speed Gust Speed Precip Events Conditions
12:05 AM 24.8 °F - 24.8 °F 100% 30.02 in 1.2 mi Calm Calm - 0.01 in Snow Light Snow
12:18 AM 24.8 °F - 24.8 °F 100% 30.02 in 1.0 mi Calm Calm - 0.01 in Snow Light Snow
12:25 AM 24.8 °F - 24.8 °F 100% 30.02 in 1.2 mi Calm Calm - 0.02 in Snow Light Snow
12:53 AM 25.0 °F 19.3 °F 21.0 °F 85% 30.11 in 2.5 mi NNW 4.6 mph - 0.02 in Snow Light Snow
1:01 AM 24.8 °F - 19.4 °F 80% 30.04 in 4.0 mi Calm Calm - 0.00 in Snow Light Snow
1:12 AM 24.8 °F - 19.4 °F 80% 30.04 in 9.0 mi Calm Calm - 0.00 in   Overcast
1:53 AM 24.1 °F 19.7 °F 21.0 °F 88% 30.12 in 5.0 mi SSE 3.5 mph - 0.00 in Snow Light Snow
2:22 AM 24.8 °F - 19.4 °F 80% 30.05 in 2.0 mi Calm Calm - 0.00 in Snow Light Snow
2:32 AM 23.0 °F - 19.4 °F 86% 30.05 in 3.0 mi Calm Calm - 0.00 in Snow Light Snow
2:53 AM 21.9 °F - 18.0 °F 85% 30.11 in 9.0 mi Calm Calm - 0.00 in   Mostly Cloudy
3:53 AM 14.0 °F - 12.0 °F 92% 30.17 in 10.0 mi Calm Calm - N/A   Overcast
4:53 AM 10.0 °F 1.8 °F 8.1 °F 92% 30.21 in 10.0 mi ENE 4.6 mph - N/A   Scattered Clouds
5:53 AM 6.1 °F - 3.9 °F 91% 30.25 in 10.0 mi Calm Calm - N/A   Clear
6:53 AM 3.9 °F - 1.9 °F 91% 30.31 in 10.0 mi Calm Calm - N/A   Mostly Cloudy
7:53 AM 10.0 °F - 8.1 °F 92% 30.32 in 10.0 mi Calm Calm - N/A   Mostly Cloudy
8:53 AM 14.0 °F - 12.0 °F 92% 30.32 in 10.0 mi Calm Calm - N/A   Clear
9:53 AM 17.1 °F - 12.9 °F 84% 30.32 in 10.0 mi Calm Calm - N/A   Clear
10:53 AM 19.9 °F - 16.0 °F 85% 30.31 in 10.0 mi Calm Calm - N/A   Clear
11:53 AM 25.0 °F - 17.1 °F 72% 30.28 in 10.0 mi Calm Calm - N/A   Clear
12:53 PM 28.9 °F 21.9 °F 14.0 °F 54% 30.24 in 10.0 mi West 6.9 mph - N/A   Scattered Clouds
1:53 PM 28.9 °F 21.1 °F 17.1 °F 61% 30.25 in 10.0 mi SW 8.1 mph - N/A   Overcast
2:53 PM 28.9 °F 20.4 °F 15.1 °F 56% 30.27 in 10.0 mi WSW 9.2 mph - N/A   Clear
3:53 PM 28.9 °F 23.9 °F 14.0 °F 54% 30.33 in 10.0 mi WNW 4.6 mph - N/A   Clear
4:53 PM 26.1 °F 19.4 °F 16.0 °F 66% 30.38 in 10.0 mi SSE 5.8 mph - N/A   Clear
5:53 PM 23.0 °F - 15.1 °F 72% 30.43 in 10.0 mi Calm Calm - N/A   Clear
6:53 PM 19.9 °F 14.9 °F 14.0 °F 78% 30.48 in 10.0 mi East 3.5 mph - N/A   Clear
7:53 PM 19.0 °F - 12.9 °F 77% 30.47 in 10.0 mi Calm Calm - N/A   Clear
8:53 PM 17.1 °F 6.6 °F 10.9 °F 77% 30.48 in 10.0 mi East 8.1 mph - N/A   Clear
9:53 PM 16.0 °F 5.3 °F 10.9 °F 81% 30.48 in 10.0 mi ENE 8.1 mph - N/A   Clear
10:53 PM 16.0 °F 7.4 °F 9.0 °F 74% 30.48 in 10.0 mi ENE 5.8 mph - N/A   Clear
11:53 PM 15.1 °F 9.4 °F 8.1 °F 74% 30.48 in 10.0 mi Variable 3.5 mph - N/A   Clear